This is the latest recevied weather packets stored in our database for station/object IZ8GMP-13. If no packets are shown the sender has not sent any weather packets the latest 10 day(s).
| Time | Temp. | Humidity | Pressure | Rain* | Wind** | Luminosity | Snow |
|---|---|---|---|---|---|---|---|
| 1777480128 | 20.56° C | 44% | 1015.3 hPa | - | - | - | - |
| 1777478924 | 21.11° C | 48% | 1015.5 hPa | - | - | - | - |
| 1777477721 | 21.67° C | 37% | 1015.6 hPa | - | - | - | - |
| 1777476517 | 21.67° C | 37% | 1015.5 hPa | - | - | - | - |
| 1777475314 | 22.22° C | 36% | 1015.8 hPa | - | - | - | - |
| 1777474110 | 23.33° C | 31% | 1015.7 hPa | - | - | - | - |
| 1777472907 | 22.78° C | 30% | 1015.8 hPa | - | - | - | - |
| 1777471703 | 23.89° C | 28% | 1015.6 hPa | - | - | - | - |
| 1777470500 | 23.89° C | 27% | 1015.7 hPa | - | - | - | - |
| 1777469296 | 24.44° C | 25% | 1015.8 hPa | - | - | - | - |
| 1777468093 | 24.44° C | 26% | 1016 hPa | - | - | - | - |
| 1777466889 | 24.44° C | 26% | 1016.3 hPa | - | - | - | - |
| 1777465686 | 23.89° C | 28% | 1016.3 hPa | - | - | - | - |
| 1777464482 | 23.89° C | 30% | 1016.2 hPa | - | - | - | - |
| 1777463279 | 23.89° C | 33% | 1016.3 hPa | - | - | - | - |
| 1777462075 | 23.33° C | 30% | 1016.3 hPa | - | - | - | - |
| 1777460872 | 23.89° C | 31% | 1016.2 hPa | - | - | - | - |
| 1777459669 | 23.89° C | 34% | 1016.3 hPa | - | - | - | - |
| 1777458465 | 22.78° C | 35% | 1016.5 hPa | - | - | - | - |
| 1777457262 | 23.33° C | 43% | 1016.7 hPa | - | - | - | - |
| 1777456058 | 23.89° C | 43% | 1016.8 hPa | - | - | - | - |
| 1777454855 | 23.33° C | 52% | 1016.8 hPa | - | - | - | - |
| 1777453651 | 22.78° C | 55% | 1016.9 hPa | - | - | - | - |
| 1777452448 | 21.67° C | 60% | 1016.8 hPa | - | - | - | - |
| 1777451244 | 21.67° C | 59% | 1016.7 hPa | - | - | - | - |
* Rain since midnight (hover to see other rain measurements)
** Current wind speed in m/s (hover to see current wind gust speed)